Hourly Weather Roundup
Issued by NWS Central Illinois

Home | Current Version | Previous Version | Text Only | Print | Product List | Glossary On
Versions: 1 2 3 4 5 6 7 8 9 10 11 12 13 14 15 16 17 18 19 20 21 22 23 24 25 26 27 28 29 30 31 32 33 34 35 36 37 38 39 40 41 42 43 44 45 46 47 48 49 50
000
NZUS43 KILX 290510
HWRILX

AREA WEATHER ROUNDUP
NATIONAL WEATHER SERVICE, LINCOLN IL
1200 AM CDT THU SEP 29 2016


CITY           SKY/WX    TMP DP  RH WIND       PRES   REMARKS
BLOOMINGTON    CLOUDY    56  49  77 N17       30.08F
CHAMPAIGN      CLOUDY    56  50  80 NW10      30.04F
DANVILLE       CLOUDY    55  53  94 NW12      30.00S
DECATUR        PTCLDY    57  49  74 NW13      30.08S
EFFINGHAM      CLEAR     54  51  91 NW6       30.06S
FLORA          CLEAR     55  50  83 W8        30.06S
GALESBURG      CLEAR     52  49  89 NW7       30.18S
JACKSONVILLE   CLEAR     53  49  84 NW7       30.14S
LACON          MOCLDY    54  48  81 N8        30.12S
LAWRENCEVILLE  PTCLDY    54  49  83 NW7       30.03S
LITCHFIELD     CLEAR     52  47  82 NW8       30.09F
$$


CITY           SKY/WX    TMP DP  RH WIND       PRES   REMARKS
LINCOLN        PTCLDY    55  50  86 NW5       30.10S
MACOMB         CLEAR     53  49  88 N9        30.20R
MATTOON        MOCLDY    54  48  80 N12       30.03F
MT CARMEL AP   PTCLDY    54  49  85 NW6       30.04R
OLNEY-NOBLE AP PTCLDY    52  52 100 NW3       30.05S
PARIS          CLOUDY    53  51  92 CALM      30.03S
PEORIA         CLEAR     55  51  86 N8        30.13S
PONTIAC        CLOUDY    57  53  86 N12G17    30.09S
RANTOUL        CLOUDY    57  54  89 N9G16     30.04S
ROBINSON       CLEAR     51  49  92 NW5       30.04S
SPRINGFIELD    CLEAR     56  50  80 NW8       30.12R
TAYLORVILLE    CLEAR     54  49  83 NW13      30.09S
$$

...REGIONAL REPORTS...


CITY           SKY/WX    TMP DP  RH WIND       PRES   REMARKS
CHICAGO O`HARE CLOUDY    59  55  87 N17       30.07S
KANKAKEE       CLOUDY    56  54  94 NW8       30.05F
MOLINE         CLEAR     56  49  77 N8        30.19S
MOUNT STERLING CLEAR     52  49  87 N9        30.16S
MOUNT VERNON   PTCLDY    52  45  76 W3        30.08S
PITTSFIELD     CLEAR     54  49  84 NW7       30.17S
QUINCY         CLEAR     53  48  83 NW8       30.18R
ROCKFORD       PTCLDY    56  49  77 N12G22    30.18S
$$


CITY           SKY/WX    TMP DP  RH WIND       PRES   REMARKS
BURLINGTON     CLEAR     53  50  89 N7        30.20R
CEDAR RAPIDS   CLEAR     53  51  93 N7        30.24R
DES MOINES     CLEAR     56  49  77 N9        30.29R
KIRKSVILLE     CLEAR     52  48  86 N7        30.24R
OTTUMWA        CLEAR     51  47  86 N8        30.25R
ST LOUIS       PTCLDY    57  48  72 NW8       30.13S
$$


CITY           SKY/WX    TMP DP  RH WIND       PRES   REMARKS
TERRE HAUTE    CLOUDY    55  50  83 NW3       30.01F
EVANSVILLE     CLEAR     54  48  80 W5        30.04F
INDIANAPOLIS   CLOUDY    55  52  89 NW7       29.97F
LAFAYETTE      NOT AVBL
MADISON        CLEAR     51  49  92 N9        30.21S
MILWAUKEE      PTCLDY    60  55  83 N20G32    30.14F
$$





USA.gov is the U.S. government's official web portal to all federal, state and local government web resources and services.